Location: Unspecified
(50.7693°N, 0.0000°E)
Time: 12:33:49
(UTC+00:00)

deb Explorer IX - Pass Details

Date: 27 June 2019
Orbit: 539 x 1112 km, 38.8° (Epoch: 21 July)

Event Time Altitude Azimuth Distance (km) Brightness Sun altitude
Rises 11:30:28 0° 214° (SW) 3,561 ? 61.8°
Reaches altitude 10° 11:33:42 10° 198° (SSW) 2,717 ? 62.0°
Maximum altitude 11:38:15 20° 154° (SSE) 2,202 ? 62.1°
Drops below altitude 10° 11:43:07 10° 111° (ESE) 2,923 ? 62.3°
Sets 11:46:44 0° 96° (E) 3,920 ? 62.4°
